Theta_e
300 300 301 301 301 302 303 306 307 305 304 309 311 311 311 311 308 312 309 305 306 308 305 309 315 321 321 321 319 317 323 323 320 321 317 317 316 312 311 309 307 306 305 307 322
300 300 301 303 304 305 306 308 309 310 307 309 310 310 310 313 306 308 306 307 308 309 307 309 313 320 321 318 317 318 321 320 318 316 316 317 312 313 312 308 307 307 308 313 325
300 300 301 304 305 307 308 306 307 310 310 311 310 308 311 313 305 299 305 308 308 309 308 308 309 312 318 320 319 317 320 320 316 314 315 316 313 310 310 309 305 305 305 307 311
300 300 300 303 305 304 305 304 303 302 304 309 308 304 301 310 297 301 303 307 308 309 309 309 308 309 316 318 319 320 318 318 317 313 315 315 313 310 308 307 305 304 304 307 307
300 300 300 303 305 304 302 301 301 301 299 301 304 305 301 300 298 301 305 306 308 308 309 309 308 309 307 316 313 317 318 314 315 312 313 316 314 311 308 307 306 305 306 302 302
300 300 300 302 304 304 304 302 300 301 300 299 299 300 301 297 301 302 305 306 307 307 308 308 308 308 309 308 307 313 313 315 313 313 311 309 309 310 306 305 303 306 301 301 300
300 300 300 301 303 302 303 299 300 300 300 300 299 300 301 298 301 302 306 307 306 306 306 306 307 308 309 308 308 308 307 303 300 305 308 308 306 305 303 301 300 299 298 297 298
299 300 300 300 302 300 301 300 300 300 300 301 299 299 298 300 303 306 306 306 305 304 305 304 308 307 305 308 304 305 304 305 300 299 306 307 305 302 301 299 298 297 296 295 294
300 300 300 300 301 300 300 300 300 300 300 300 299 298 296 300 302 303 304 304 305 304 301 303 307 298 302 302 301 300 302 302 303 299 303 306 303 301 299 298 297 296 296 295 294
299 300 300 300 300 301 301 299 299 300 300 299 299 298 296 295 297 300 303 304 301 300 300 298 296 295 295 298 300 300 300 297 296 297 302 302 301 299 298 297 296 295 295 294 293
299 300 299 300 300 300 300 302 302 298 297 295 295 295 295 296 297 299 300 300 299 297 295 295 293 292 292 294 297 294 294 294 295 297 302 301 300 298 296 295 295 294 293 293 292
299 300 300 301 300 300 300 301 299 298 296 296 296 295 296 295 295 297 300 298 294 292 295 292 292 292 294 295 294 293 294 294 295 296 301 300 299 297 295 294 294 293 293 292 291
300 300 299 300 301 301 301 300 300 299 298 297 296 295 294 295 294 294 296 297 296 293 292 291 292 294 293 293 294 294 293 293 294 296 300 299 300 297 295 294 293 292 291 291 291
300 300 300 300 301 300 301 301 301 302 294 295 296 295 295 296 295 293 295 295 295 296 293 292 291 292 293 293 293 295 293 293 295 295 297 301 300 298 294 294 293 291 291 291 291
299 299 300 301 301 300 300 300 298 305 293 295 296 295 294 294 293 292 293 295 292 291 292 293 291 290 291 292 292 294 293 294 295 296 295 297 293 299 295 294 293 291 291 291 290
299 299 300 300 300 300 300 300 302 295 289 297 294 294 293 293 294 293 291 293 292 292 292 291 292 290 290 291 292 293 296 294 297 296 291 293 293 294 296 293 292 290 291 290 290
299 299 300 301 301 301 299 302 296 293 292 293 293 293 292 291 292 291 289 288 288 290 291 291 290 291 290 291 292 293 290 282 287 286 291 293 289 292 293 292 290 290 291 290 290
299 299 299 300 300 302 303 296 291 285 291 295 294 294 292 290 291 290 290 288 287 288 287 288 291 289 290 291 291 292 289 285 284 289 290 291 288 291 292 291 290 290 290 290 290
298 298 299 300 300 300 300 290 290 291 295 293 294 293 292 291 291 290 288 288 288 287 286 286 290 290 290 291 290 290 288 291 281 274 283 290 294 295 293 291 290 290 290 290 290
298 298 299 299 299 300 296 290 291 293 292 293 295 292 291 290 290 289 290 289 289 289 289 288 286 290 291 291 291 290 290 286 279 280 279 287 289 292 294 293 290 290 290 290 290
298 298 297 298 298 300 290 283 293 291 292 293 292 292 291 291 290 288 289 290 289 289 289 288 283 288 290 288 288 289 289 287 282 284 280 283 287 284 292 292 288 289 289 289 289
297 296 297 298 298 289 282 287 291 290 291 291 292 292 291 290 290 289 290 291 289 289 287 288 281 282 289 288 288 290 287 286 281 283 285 286 286 289 290 289 289 289 289 289 289
297 297 296 297 288 279 288 290 290 289 290 290 291 291 290 290 285 289 286 290 289 289 288 287 281 278 284 285 288 288 289 288 282 279 280 281 285 288 288 288 289 289 289 289 289
296 292 295 297 292 289 284 285 287 290 290 291 290 290 289 289 287 282 287 289 289 289 290 289 283 282 284 284 285 287 287 285 281 276 283 285 287 288 288 288 288 288 289 288 288
295 293 293 285 288 290 290 285 285 287 290 290 289 288 288 283 287 283 285 289 289 289 290 287 281 283 284 286 286 288 289 289 286 286 283 288 287 288 288 288 288 288 288 287 288
295 294 293 292 292 291 288 288 288 288 288 288 289 289 287 283 287 284 286 288 289 288 288 287 279 280 280 283 286 287 287 287 288 288 287 287 287 288 288 288 287 288 288 287 288
293 294 293 290 290 287 287 289 290 290 289 290 289 288 289 288 289 290 289 289 289 287 285 283 279 276 278 280 278 281 282 286 287 286 285 285 287 288 286 287 287 288 288 288 288
Wind_Speed
18 19 21 21 19 18 19 20 19 15 13 13 13 10 12 13 21 15 23 20 15 14 12 11 13 9 10 8 7 9 3 4 2 3 3 14 14 22 31 35 39 25 30 21 18
17 18 18 19 20 20 20 20 21 18 12 11 7 3 4 6 13 28 21 13 9 10 11 12 12 12 8 6 5 4 3 5 7 4 2 9 30 19 22 32 25 36 31 27 19
16 16 17 18 19 21 21 20 19 18 16 12 7 6 3 1 9 26 21 15 10 10 8 10 10 8 7 6 4 2 4 11 10 10 10 10 23 29 22 17 25 25 32 32 30
14 14 14 15 17 20 18 17 17 17 11 7 6 8 14 3 5 26 18 15 10 12 5 9 7 5 6 5 5 8 11 6 6 11 5 12 10 22 30 20 23 27 30 33 35
13 13 12 12 13 14 16 15 12 14 22 16 8 4 11 26 18 20 14 13 11 13 10 7 13 7 4 5 11 9 7 16 14 12 13 14 14 17 19 17 21 25 32 38 36
13 13 12 12 13 12 11 11 11 14 18 18 26 17 14 25 23 17 13 16 21 20 16 15 7 9 9 5 7 14 14 13 9 17 20 26 19 11 17 15 26 26 33 33 37
13 13 11 11 11 9 10 14 11 8 6 10 25 27 43 23 26 15 15 19 19 15 17 13 13 4 4 5 12 23 15 17 19 9 10 6 21 15 16 22 28 29 29 34 35
12 12 10 9 11 11 7 12 20 19 10 9 6 26 20 27 23 15 14 16 14 18 12 11 5 14 8 6 8 6 5 4 7 19 10 11 8 14 16 27 26 26 27 31 35
10 11 9 8 12 18 22 7 5 1 16 11 12 5 10 20 27 24 14 13 11 10 16 23 19 14 13 4 5 7 3 5 3 25 1 7 7 11 16 22 23 23 25 28 33
9 9 8 5 8 6 13 27 20 5 1 9 25 7 24 22 31 23 13 13 14 13 13 22 15 8 9 8 2 2 4 4 5 8 18 17 12 10 15 21 19 20 22 26 31
9 6 9 4 3 5 4 2 2 14 38 32 23 10 21 12 28 24 19 17 23 23 7 23 14 8 7 4 5 6 5 3 3 4 8 11 10 7 12 17 17 19 23 25 28
9 5 7 8 5 4 6 3 9 13 20 20 23 30 18 24 17 29 23 13 24 12 3 7 14 7 5 7 9 8 3 5 3 5 10 9 9 6 10 12 16 16 21 25 27
10 8 3 11 10 10 10 18 13 11 8 13 18 23 26 11 19 28 21 7 10 14 17 11 4 7 6 10 8 3 6 4 2 6 7 10 4 4 6 12 14 18 19 21 24
10 11 5 6 8 12 12 12 7 4 5 14 16 16 26 4 9 23 20 7 7 3 4 8 10 6 7 6 3 1 4 2 3 3 4 2 2 4 4 3 9 12 16 20 21
12 10 12 10 8 6 9 8 4 2 6 9 8 10 17 12 6 25 13 26 11 7 6 1 5 7 7 3 5 4 9 2 2 3 4 5 4 2 4 2 3 9 14 18 18
9 11 6 11 11 8 7 6 1 7 2 5 8 10 7 14 9 12 15 8 7 7 9 4 3 4 3 5 4 12 3 6 4 2 3 4 4 3 4 4 3 5 10 15 17
5 8 7 10 9 7 5 3 6 7 4 5 3 5 3 7 7 12 6 13 5 5 7 6 4 4 7 5 7 9 6 3 5 4 4 2 4 6 5 4 7 4 8 15 19
2 5 7 9 9 6 3 5 8 3 5 1 1 1 5 6 5 7 3 6 7 5 3 4 5 8 12 3 2 5 4 4 4 2 5 7 4 4 6 8 6 5 9 13 15
2 3 5 7 6 5 2 6 8 7 4 5 2 3 4 4 3 5 5 2 4 6 5 3 1 4 4 4 2 5 6 4 6 1 3 3 5 1 3 3 2 5 8 13 16
4 4 3 3 4 3 7 5 3 2 4 2 2 2 1 3 3 4 1 2 1 5 1 2 3 2 4 3 7 6 1 3 4 2 4 4 5 4 6 6 3 3 7 14 21
3 3 2 1 1 4 4 5 3 4 3 1 3 3 2 2 3 1 2 2 2 2 6 3 3 3 1 5 1 4 2 5 4 3 4 2 6 6 6 6 6 3 13 26 31
3 1 1 3 2 6 3 6 6 6 4 2 3 2 4 3 2 3 2 1 3 3 3 1 4 2 2 6 5 1 3 3 4 5 2 2 6 4 1 4 2 17 34 37 32
3 3 3 4 4 1 1 3 3 5 5 4 3 2 1 4 2 1 2 2 5 2 4 3 1 3 6 5 4 1 2 4 4 3 5 5 6 2 11 13 28 28 33 36 37
3 1 2 3 6 10 6 3 3 3 5 5 4 4 4 2 3 4 3 4 6 4 6 4 1 6 6 5 3 2 3 3 6 3 3 9 9 20 18 19 27 32 37 37 36
4 2 4 2 1 8 5 5 5 5 4 7 1 5 6 3 2 2 2 3 5 6 5 5 3 1 4 6 4 9 13 12 12 9 6 15 14 19 16 21 28 34 35 32 27
5 6 6 4 11 8 1 6 10 4 9 4 5 7 6 7 8 8 6 4 4 6 6 4 2 2 5 4 5 12 18 16 16 16 15 22 24 34 35 30 24 30 28 25 23
9 9 6 7 5 5 5 7 10 14 11 5 14 7 6 8 9 3 10 6 7 8 6 6 4 3 5 4 6 8 10 13 6 7 7 8 11 15 9 18 22 24 25 27 23
Wind_Direction
38 39 35 45 53 56 60 63 59 67 91 119 118 68 54 40 34 53 39 6 350 7 11 12 38 57 68 83 93 108 90 136 78 345 313 36 34 45 48 58 54 54 52 40 42
41 42 45 55 61 64 69 65 60 63 82 119 125 56 11 26 25 47 33 27 17 17 36 38 43 46 64 75 65 68 99 116 87 50 333 67 42 39 50 38 31 40 47 53 57
44 45 51 61 67 71 72 67 61 65 69 84 99 12 341 349 31 8 22 26 24 17 35 49 39 46 61 61 53 79 108 122 66 63 39 79 54 50 48 48 42 38 34 37 45
48 48 55 68 77 77 74 67 64 57 56 69 65 40 34 127 58 0 22 23 24 10 17 46 45 46 55 61 58 93 115 92 103 67 74 80 75 58 61 64 58 49 40 36 37
50 48 58 76 84 76 75 68 70 67 52 65 44 53 69 62 16 4 36 37 35 40 52 59 56 65 65 99 79 89 133 123 117 120 91 105 92 93 56 56 49 40 39 42 41
51 49 61 76 84 83 73 57 68 80 81 61 56 85 76 58 19 16 50 61 61 54 53 58 50 76 73 78 66 96 103 139 103 87 93 74 65 58 46 49 50 40 43 47 43
52 54 67 82 86 77 89 76 93 87 13 52 54 60 66 38 34 39 72 65 45 55 49 53 66 131 96 83 90 116 88 63 20 25 135 80 43 51 44 59 60 58 50 48 45
59 57 69 83 85 56 104 92 86 67 62 53 55 56 68 45 50 77 79 74 71 54 63 20 108 76 52 72 35 36 52 71 28 17 31 93 66 38 46 62 55 52 48 46 43
65 54 66 82 110 67 66 87 207 81 69 43 49 62 33 42 48 49 58 60 69 63 75 65 88 52 36 53 35 13 66 44 37 11 115 92 102 48 53 64 59 50 47 43 40
57 58 54 90 146 115 81 78 68 100 81 355 40 70 24 4 25 42 66 45 64 90 72 38 45 56 27 36 90 12 56 32 42 1 79 89 97 64 59 65 60 52 46 42 39
47 66 36 57 111 179 185 202 42 50 58 68 53 76 22 41 40 43 50 51 70 68 60 43 60 33 334 346 95 101 82 55 358 52 75 97 96 79 65 65 59 51 45 41 36
49 71 44 56 88 142 185 182 108 118 77 46 40 41 45 35 34 35 53 61 49 52 30 44 48 331 359 32 66 52 66 3 296 345 101 108 91 78 68 67 60 52 44 37 31
55 48 90 55 78 107 135 131 119 111 79 29 25 23 12 28 37 10 27 48 61 53 56 74 314 347 40 35 26 46 80 331 240 7 68 119 116 104 71 72 61 53 48 40 34
58 52 72 78 81 111 126 130 116 116 79 346 0 18 5 50 44 21 37 26 43 111 78 67 2 26 32 58 358 312 102 270 270 82 169 152 240 200 147 83 55 48 41 37 33
57 53 60 71 89 125 145 146 115 104 51 320 353 359 24 63 344 17 32 68 59 24 84 66 5 12 34 344 331 267 322 213 178 94 74 343 71 262 176 59 33 42 40 36 32
55 51 60 70 72 95 135 148 98 43 264 354 353 3 20 23 18 4 35 79 57 61 51 75 26 42 309 299 318 304 23 46 52 66 33 262 119 224 203 176 140 56 44 30 27
57 49 50 64 63 78 131 140 37 97 337 306 333 8 58 359 12 15 25 41 41 41 16 346 20 345 6 359 348 15 43 1 3 11 212 26 35 243 164 179 130 84 27 19 12
73 49 44 56 51 52 105 54 70 246 231 185 324 31 70 6 15 15 41 28 26 37 63 35 354 12 347 61 299 356 90 132 201 317 288 335 261 290 185 123 103 42 21 11 359
207 357 19 48 42 41 90 52 190 199 151 153 56 70 353 18 81 56 54 59 17 19 111 44 319 332 12 4 47 317 41 145 103 80 29 277 289 311 189 140 47 4 6 359 349
224 248 351 10 26 44 72 176 167 159 114 90 154 141 176 324 53 44 41 285 90 41 103 196 28 2 310 355 27 80 91 37 14 54 304 293 275 245 223 222 246 313 340 339 337
189 224 309 289 51 48 120 206 157 149 146 144 168 125 137 154 108 149 213 228 138 43 77 107 94 290 22 30 317 353 33 57 110 126 173 289 270 217 214 211 224 270 323 318 318
202 215 230 191 43 53 112 169 137 158 145 123 122 120 151 150 119 128 196 200 143 124 103 140 140 228 207 294 275 140 171 110 112 270 223 158 270 293 51 267 248 308 312 317 315
202 190 203 193 125 8 90 81 143 142 169 151 128 133 139 149 74 193 156 156 155 102 164 190 329 5 349 354 353 119 198 120 103 71 215 141 262 260 293 295 314 312 309 317 319
200 54 105 114 109 132 140 195 128 144 150 146 128 126 90 121 64 200 191 184 186 154 140 113 133 173 199 197 134 259 227 155 130 139 204 227 272 279 294 293 299 302 308 311 315
188 146 149 217 353 124 113 127 139 170 173 166 133 193 155 119 85 236 275 161 181 194 159 136 193 203 259 250 213 246 255 240 212 224 205 272 261 271 274 281 288 294 301 305 308
186 156 132 87 135 114 319 213 166 179 152 220 212 178 163 158 179 193 149 201 193 174 155 165 260 85 302 329 267 261 258 246 242 246 247 252 268 266 270 280 281 297 308 311 301
192 173 159 149 139 105 208 181 194 162 199 181 196 133 177 220 170 119 167 167 175 163 176 154 131 78 270 344 340 299 244 223 179 200 190 209 242 275 269 279 286 299 308 310 301